TimeCDT,TemperatureF,Dew PointF,Humidity,Sea Level PressureIn,VisibilityMPH,Wind Direction,Wind SpeedMPH,Gust SpeedMPH,PrecipitationIn,Events,Conditions,WindDirDegrees,DateUTC
12:54 AM,78.1,73.0,84,30.03,10.0,Variable,3.5,-,N/A,,Mostly Cloudy,0,2013-09-04 05:54:00
1:54 AM,75.9,72.0,87,30.01,10.0,Calm,Calm,-,N/A,,Clear,0,2013-09-04 06:54:00
2:54 AM,75.0,72.0,90,30.02,10.0,Calm,Calm,-,N/A,,Clear,0,2013-09-04 07:54:00
3:54 AM,73.9,71.1,91,30.02,8.0,Calm,Calm,-,N/A,,Clear,0,2013-09-04 08:54:00
4:54 AM,73.0,70.0,90,30.02,5.0,Calm,Calm,-,N/A,,Clear,0,2013-09-04 09:54:00
5:54 AM,73.0,70.0,90,30.04,5.0,Calm,Calm,-,N/A,,Clear,0,2013-09-04 10:54:00
6:54 AM,72.0,70.0,93,30.06,4.0,Calm,Calm,-,N/A,,Clear,0,2013-09-04 11:54:00
7:54 AM,75.0,72.0,90,30.08,8.0,Calm,Calm,-,N/A,,Clear,0,2013-09-04 12:54:00
8:54 AM,82.9,73.0,72,30.10,10.0,Calm,Calm,-,N/A,,Clear,0,2013-09-04 13:54:00
9:54 AM,88.0,73.0,61,30.11,10.0,Calm,Calm,-,N/A,,Clear,0,2013-09-04 14:54:00
10:54 AM,91.0,71.1,52,30.11,10.0,Calm,Calm,-,N/A,,Clear,0,2013-09-04 15:54:00
11:54 AM,91.9,70.0,48,30.10,10.0,Calm,Calm,-,N/A,,Scattered Clouds,0,2013-09-04 16:54:00
12:54 PM,93.9,70.0,46,30.08,10.0,Variable,3.5,-,N/A,,Scattered Clouds,0,2013-09-04 17:54:00
1:54 PM,96.1,70.0,43,30.06,10.0,Variable,6.9,-,N/A,,Scattered Clouds,0,2013-09-04 18:54:00
2:54 PM,98.1,68.0,37,30.03,10.0,Variable,5.8,-,N/A,,Partly Cloudy,0,2013-09-04 19:54:00
3:54 PM,99.0,66.9,35,30.01,10.0,Variable,3.5,-,N/A,,Scattered Clouds,0,2013-09-04 20:54:00
4:54 PM,95.0,71.1,46,30.02,10.0,Variable,4.6,-,N/A,,Scattered Clouds,0,2013-09-04 21:54:00
5:51 PM,89.6,69.8,52,29.95,10.0,Calm,Calm,-,N/A,Thunderstorm,Thunderstorm,0,2013-09-04 22:51:00
5:54 PM,90.0,71.1,54,30.04,10.0,Calm,Calm,-,N/A,Thunderstorm,Thunderstorm,0,2013-09-04 22:54:00
6:24 PM,86.0,71.6,62,29.96,10.0,Calm,Calm,-,N/A,,Partly Cloudy,0,2013-09-04 23:24:00
6:54 PM,84.0,71.1,65,30.05,10.0,Calm,Calm,-,N/A,,Clear,0,2013-09-04 23:54:00
7:54 PM,82.0,71.1,69,30.06,10.0,Calm,Calm,-,N/A,,Clear,0,2013-09-05 00:54:00
8:54 PM,81.0,71.1,72,30.07,10.0,Calm,Calm,-,N/A,,Scattered Clouds,0,2013-09-05 01:54:00
9:54 PM,80.1,71.1,74,30.09,10.0,Calm,Calm,-,N/A,,Clear,0,2013-09-05 02:54:00
10:54 PM,80.1,72.0,76,30.10,10.0,Calm,Calm,-,N/A,,Scattered Clouds,0,2013-09-05 03:54:00
11:54 PM,78.1,73.0,84,30.09,10.0,Calm,Calm,-,N/A,,Clear,0,2013-09-05 04:54:00